Regional Weather Roundup
Issued by NWS Albany, NY

Home | Current Version | Previous Version | Text Only | Print | Product List | Glossary On
Versions: 1 2 3 4 5 6 7 8 9 10 11 12 13 14 15 16 17 18 19 20 21 22 23 24 25 26 27 28
000
ASUS41 KALY 161310
RWRALY

NEW YORK STATE HOURLY WEATHER ROUNDUP
NATIONAL WEATHER SERVICE ALBANY NY
900 AM EDT WED AUG 16 2017

NOTE: "FAIR" INDICATES FEW OR NO CLOUDS BELOW 12,000 FEET WITH NO
SIGNIFICANT WEATHER AND/OR NO OBSTRUCTIONS TO VISIBILITY.

NYZ032-033-038>043-046>054-057>066-NYZ062>081-082-084-161400-
EAST


CITY           SKY/WX    TMP DP  RH WIND       PRES   REMARKS
ALBANY         PTSUNNY   72  63  73 NW12      29.99R
GLENS FALLS    PTSUNNY   68  62  81 NE6       29.99R
POUGHKEEPSIE   PTSUNNY   68  64  87 CALM      29.98S
NEWBURGH       SUNNY     70  66  88 CALM      30.00S
MONTGOMERY     SUNNY     72  64  76 CALM      29.98F
WHITE PLAINS   SUNNY     75  65  70 NW9       29.96S
ISLIP          MOSUNNY   76  69  79 N10       29.94S
NEW YORK CITY  MOSUNNY   75  66  73 N7        29.95S
CENTRAL PARK   SUNNY     73  66  78 CALM      29.99S
$$

NYZ005>009-017-018-044>046-055-056-161400-
CENTRAL


CITY           SKY/WX    TMP DP  RH WIND       PRES   REMARKS
FULTON         CLOUDY    68  62  81 NE5       30.05R
SYRACUSE       CLOUDY    67  66  97 NW5       30.03R FOG
ROME           MOSUNNY   68  62  81 NE7       30.03R
ELMIRA         PTSUNNY   68  65  90 S7        30.05R
BINGHAMTON     CLOUDY    62  61  96 NW7       30.07R FOG
MONTICELLO     CLOUDY    65  62  90 NW7       30.05R
$$

NYZ026>034-041>043-087-161400-
NORTH


CITY           SKY/WX    TMP DP  RH WIND       PRES   REMARKS
WATERTOWN      CLOUDY    63  58  83 NE12      30.06R
FORT DRUM      NOT AVBL
OGDENSBURG     FAIR      64  55  72 N6        30.07R
MASSENA        SUNNY     64  53  67 VRB5      30.07R
SARANAC LAKE   MOSUNNY   59  56  89 VRB6      30.04R
PLATTSBURGH    SUNNY     65  53  65 N16       30.02R
$$

NYZ001>004-010>016-019>021-085-161400-
WEST


CITY           SKY/WX    TMP DP  RH WIND       PRES   REMARKS
NIAGARA FALLS  CLOUDY    70  32  24 E3        30.08R
BUFFALO        PTSUNNY   69  62  78 CALM      30.08R
DUNKIRK        SUNNY     71  63  75 NE5       30.08R
JAMESTOWN      CLOUDY    61  60  97 NE5       30.11S FOG
WELLSVILLE     PTSUNNY   67  62  84 VRB3      30.12R HAZE
ROCHESTER      PTSUNNY   69  63  81 E8        30.07R
PENN YAN       PTSUNNY   68  62  81 VRB3      30.07S
$$

             KEY
       WCI = WIND CHILL INDEX
       VSB = VISIBILITY
       HX  = HEAT INDEX
$$




USA.gov is the U.S. government's official web portal to all federal, state and local government web resources and services.